Torna al catalogo

STARLINK-34493

AttivoComunicazioniVLEO
NORAD 64472·PAYLOAD·🇺🇸 United States

Lanciato Jun 23, 2025 da Cape Canaveral Space Force Station

Loading…

Prossimi Passaggi (prossime 24 ore)

TLE

AggiornatoSource: CelesTrak SupGP

Epoca: Sep 15, 2026, 02:43 UTC

1 64472C 25133A   26258.11368056  .00051719  00000+0  15281-2 0  2589
2 64472  53.1582 314.6222 0001186  96.7612 235.4347 15.34364212    16

Traccia STARLINK-34493 in tempo reale con AllMySat

Download on the App Store